Weather in Maksatixa

Russia / Tver Oblast     57°47′36″N   35°52′30″E
temp.,
°C
wind,
m/s
gust,
m/s
humid.,
%
clouds,
%
prec.,
mm/h
press.,
hPa
HPBL,
m
4 august, wed
wed400:00+12wsw310870 0.0 1010239
03:00+11wsw210920 0.0 1012228
06:00+11w39900 0.0 1013305
09:00+17w35593 0.0 1014933
12:00+20w4642100 0.0 10152299
15:00+19nw364891 0.0 10151584
18:00+19wnw254659 0.0 10151072
21:00+15w226295 0.0 101633
5 august, thu
thu500:00+14wnw1164100 0.0 101715
03:00+13nw1164100 0.0 101719
06:00+13ene0068100 0.0 101815
09:00+16ne1261100 0.0 1018152
12:00+18e1250100 0.0 1018411
15:00+21se2340100 0.0 10171814
18:00+13wsw2698100 2.3 1017155
21:00+13e1397100 3.9 1017104
6 august, fri
fri600:00+12ene2699100 1.3 1016305
03:00+12ne3798100 4.6 1016465
06:00+12ene41197100 1.6 1015596
09:00+12ne3996100 1.7 1015694
12:00+15ne4777100 0.1 1015879
15:00+15nne4573100 0.1 1015894
18:00+15ne4678100 0.0 1015687
21:00+13ne378971 0.0 1015358
7 august, sat
sat700:00+13ne3995100 0.0 1014380
03:00+15ene4997100 0.1 1014574
06:00+13ene51197100 0.6 1014553
09:00+13ene51298100 1.4 1015582
12:00+14ene51197100 0.0 1015510
15:00+14ene51199100 2.8 1015538
18:00+14ene51298100 1.3 1015569
21:00+14e51398100 2.1 1014545
8 august, sun
sun800:00+15e51299100 1.6 1014463
03:00+15e41199100 1.9 1014481
06:00+15e3899100 0.3 1013485
09:00+16e489698 0.8 1012434
12:00+17ese2892100 0.1 1013536
15:00+20ese3776100 0.1 1013368
18:00+18se2588100 0.3 101397
21:00+17ese3896100 0.6 1014204